| time (UTC) | temp F | wind direction | speed MPH | gust MPH | rain 1hr in | rain 24hr in | rain mn in | humidity % | barometer mb |
| 20260904223635 | 74 | 219 | 7.0 | 13.0 | 0.00 | 0.00 | 0.00 | 69 | 1011.8 |
| 20260904222558 | 75 | 221 | 9.0 | 13.0 | 0.00 | 0.00 | 0.00 | 67 | 1011.8 |
| 20260904222056 | 75 | 236 | 10.0 | 13.0 | 0.00 | 0.00 | 0.00 | 67 | 1011.8 |
| 20260904221048 | 75 | 215 | 6.0 | 13.0 | 0.00 | 0.00 | 0.00 | 69 | 1011.8 |
| 20260904220548 | 75 | 200 | 8.0 | 14.0 | 0.00 | 0.00 | 0.00 | 69 | 1011.8 |
| 20260904220034 | 75 | 256 | 7.0 | 14.0 | 0.00 | 0.00 | 0.00 | 68 | 1011.8 |
| 20260904215529 | 74 | 241 | 5.0 | 13.0 | 0.00 | 0.00 | 0.00 | 70 | 1011.8 |
| 20260904214957 | 75 | 201 | 9.0 | 13.0 | 0.00 | 0.00 | 0.00 | 70 | 1011.8 |
| 20260904214450 | 75 | 290 | 7.0 | 13.0 | 0.00 | 0.00 | 0.00 | 68 | 1011.8 |
| 20260904213936 | 76 | 221 | 9.0 | 13.0 | 0.00 | 0.00 | 0.00 | 68 | 1011.8 |
| 20260904213403 | 75 | 242 | 7.0 | 15.0 | 0.00 | 0.00 | 0.00 | 69 | 1011.8 |
| 20260904212903 | 75 | 223 | 7.0 | 15.0 | 0.00 | 0.00 | 0.00 | 69 | 1011.8 |
| 20260904211835 | 75 | 224 | 10.0 | 13.0 | 0.00 | 0.00 | 0.00 | 68 | 1012.1 |
| 20260904211304 | 75 | 222 | 5.0 | 11.0 | 0.00 | 0.00 | 0.00 | 68 | 1011.8 |
| 20260904210749 | 75 | 257 | 8.0 | 13.0 | 0.00 | 0.00 | 0.00 | 69 | 1012.1 |
| 20260904205733 | 75 | 236 | 6.0 | 11.0 | 0.00 | 0.00 | 0.00 | 67 | 1011.8 |
| 20260904205234 | 75 | 227 | 10.0 | 13.0 | 0.00 | 0.00 | 0.00 | 67 | 1011.8 |
| 20260904204704 | 75 | 176 | 6.0 | 13.0 | 0.00 | 0.00 | 0.00 | 67 | 1012.1 |
| 20260904204204 | 76 | 201 | 6.0 | 10.0 | 0.00 | 0.00 | 0.00 | 65 | 1011.8 |
| 20260904203705 | 76 | 212 | 6.0 | 11.0 | 0.00 | 0.00 | 0.00 | 65 | 1012.1 |
| 20260904202703 | 75 | 210 | 6.0 | 13.0 | 0.00 | 0.00 | 0.00 | 66 | 1012.1 |
| 20260904202154 | 74 | 185 | 2.0 | 13.0 | 0.00 | 0.00 | 0.00 | 67 | 1012.1 |
| 20260904201635 | 74 | 207 | 9.0 | 14.0 | 0.00 | 0.00 | 0.00 | 66 | 1012.1 |
| 20260904201104 | 75 | 221 | 13.0 | 14.0 | 0.00 | 0.00 | 0.00 | 64 | 1012.1 |
| 20260904200556 | 76 | 258 | 9.0 | 11.0 | 0.00 | 0.00 | 0.00 | 63 | 1012.1 |
| 20260904200056 | 76 | 208 | 8.0 | 11.0 | 0.00 | 0.00 | 0.00 | 62 | 1012.1 |
| 20260904195556 | 76 | 289 | 5.0 | 13.0 | 0.00 | 0.00 | 0.00 | 62 | 1012.1 |
| 20260904195049 | 77 | 234 | 10.0 | 13.0 | 0.00 | 0.00 | 0.00 | 61 | 1012.1 |
| 20260904194535 | 76 | 196 | 4.0 | 10.0 | 0.00 | 0.00 | 0.00 | 62 | 1012.4 |
| 20260904194036 | 75 | 216 | 8.0 | 10.0 | 0.00 | 0.00 | 0.00 | 62 | 1012.4 |
| 20260904193504 | 76 | 221 | 5.0 | 10.0 | 0.00 | 0.00 | 0.00 | 62 | 1012.4 |
| 20260904193003 | 75 | 225 | 6.0 | 11.0 | 0.00 | 0.00 | 0.00 | 64 | 1012.4 |
| 20260904192003 | 75 | 185 | 6.0 | 11.0 | 0.00 | 0.00 | 0.00 | 62 | 1012.4 |
| 20260904191450 | 75 | 206 | 9.0 | 11.0 | 0.00 | 0.00 | 0.00 | 63 | 1012.8 |
| 20260904190948 | 76 | 180 | 7.0 | 9.0 | 0.00 | 0.00 | 0.00 | 62 | 1012.8 |
| 20260904190435 | 76 | 270 | 2.0 | 9.0 | 0.00 | 0.00 | 0.00 | 62 | 1012.8 |
| 20260904185904 | 75 | 195 | 4.0 | 9.0 | 0.00 | 0.00 | 0.00 | 62 | 1012.8 |
| 20260904184904 | 75 | 217 | 4.0 | 8.0 | 0.00 | 0.00 | 0.00 | 63 | 1012.8 |
| 20260904184349 | 76 | 210 | 4.0 | 9.0 | 0.00 | 0.00 | 0.00 | 62 | 1012.8 |
| 20260904183830 | 75 | 150 | 2.0 | 9.0 | 0.00 | 0.00 | 0.00 | 64 | 1012.8 |
| 20260904183257 | 74 | 225 | 4.0 | 7.0 | 0.00 | 0.00 | 0.00 | 65 | 1012.8 |
| 20260904182229 | 74 | 288 | 4.0 | 8.0 | 0.00 | 0.00 | 0.00 | 66 | 1013.1 |
| 20260904181656 | 74 | 207 | 5.0 | 8.0 | 0.00 | 0.00 | 0.00 | 66 | 1013.1 |
| 20260904181155 | 73 | 307 | 2.0 | 8.0 | 0.00 | 0.00 | 0.00 | 68 | 1012.8 |
| 20260904180637 | 73 | 238 | 4.0 | 8.0 | 0.00 | 0.00 | 0.00 | 68 | 1013.1 |
| 20260904175636 | 73 | 200 | 6.0 | 8.0 | 0.00 | 0.00 | 0.00 | 69 | 1013.1 |
| 20260904175135 | 73 | 210 | 4.0 | 8.0 | 0.00 | 0.00 | 0.00 | 70 | 1013.1 |
| 20260904174103 | 74 | 161 | 4.0 | 6.0 | 0.00 | 0.00 | 0.00 | 67 | 1013.1 |
| 20260904173548 | 74 | 218 | 3.0 | 7.0 | 0.00 | 0.00 | 0.00 | 67 | 1013.1 |
| 20260904172002 | 74 | 279 | 5.0 | 9.0 | 0.00 | 0.00 | 0.00 | 68 | 1013.1 |
| 20260904171503 | 75 | 312 | 1.0 | 3.0 | 0.00 | 0.00 | 0.00 | 62 | 1012.8 |
| 20260904170936 | 74 | 192 | 2.0 | 6.0 | 0.00 | 0.00 | 0.00 | 63 | 1012.8 |
| 20260904170438 | 73 | 61 | 1.0 | 6.0 | 0.00 | 0.00 | 0.00 | 66 | 1012.8 |
| 20260904165935 | 73 | 180 | 2.0 | 6.0 | 0.00 | 0.00 | 0.00 | 66 | 1012.8 |
| 20260904165403 | 73 | 80 | 3.0 | 6.0 | 0.00 | 0.00 | 0.00 | 65 | 1012.8 |
| 20260904164904 | 74 | 137 | 4.0 | 4.0 | 0.00 | 0.00 | 0.00 | 64 | 1012.4 |
| 20260904164404 | 74 | 199 | 1.0 | 3.0 | 0.00 | 0.00 | 0.00 | 65 | 1012.4 |
| 20260904163335 | 73 | 247 | 2.0 | 4.0 | 0.00 | 0.00 | 0.00 | 67 | 1012.8 |
| 20260904162836 | 73 | 262 | 4.0 | 4.0 | 0.00 | 0.00 | 0.00 | 67 | 1012.4 |
| 20260904162336 | 73 | 180 | 3.0 | 4.0 | 0.00 | 0.00 | 0.00 | 67 | 1012.4 |
| 20260904161803 | 72 | 121 | 4.0 | 4.0 | 0.00 | 0.00 | 0.00 | 69 | 1012.4 |
| 20260904161305 | 71 | 248 | 1.0 | 3.0 | 0.00 | 0.00 | 0.00 | 74 | 1012.4 |
| 20260904160258 | 71 | 60 | 2.0 | 3.0 | 0.00 | 0.00 | 0.00 | 74 | 1012.4 |
| 20260904155757 | 70 | 266 | 1.0 | 4.0 | 0.00 | 0.00 | 0.00 | 77 | 1012.4 |
| 20260904155257 | 69 | 222 | 1.0 | 4.0 | 0.00 | 0.00 | 0.00 | 76 | 1012.4 |
| 20260904154256 | 69 | 289 | 1.0 | 4.0 | 0.00 | 0.00 | 0.00 | 77 | 1012.4 |
| 20260904153756 | 69 | 137 | 2.0 | 4.0 | 0.00 | 0.00 | 0.00 | 77 | 1012.4 |
| 20260904153240 | 69 | 167 | 2.0 | 4.0 | 0.00 | 0.00 | 0.00 | 77 | 1012.4 |
| 20260904152728 | 69 | 158 | 3.0 | 4.0 | 0.00 | 0.00 | 0.00 | 76 | 1012.4 |
| 20260904152204 | 69 | 7 | 1.0 | 4.0 | 0.00 | 0.00 | 0.00 | 78 | 1012.4 |
| 20260904151703 | 69 | 35 | 4.0 | 4.0 | 0.00 | 0.00 | 0.00 | 77 | 1012.4 |
| 20260904151203 | 69 | 35 | 2.0 | 3.0 | 0.00 | 0.00 | 0.00 | 77 | 1012.4 |
| 20260904145702 | 70 | 9 | 0.0 | 3.0 | 0.00 | 0.00 | 0.00 | 77 | 1012.4 |
| 20260904145201 | 69 | 346 | 0.0 | 3.0 | 0.00 | 0.00 | 0.00 | 79 | 1012.1 |
| 20260904144701 | 68 | 1 | 1.0 | 2.0 | 0.00 | 0.00 | 0.00 | 81 | 1012.1 |
| 20260904144157 | 67 | 21 | 1.0 | 3.0 | 0.00 | 0.00 | 0.00 | 83 | 1012.1 |
| 20260904143657 | 66 | 25 | 1.0 | 3.0 | 0.00 | 0.00 | 0.00 | 83 | 1012.1 |
| 20260904143157 | 66 | 341 | 1.0 | 1.0 | 0.00 | 0.00 | 0.00 | 84 | 1012.1 |
| 20260904142649 | 66 | 330 | 1.0 | 1.0 | 0.00 | 0.00 | 0.00 | 84 | 1011.8 |
| 20260904142136 | 65 | 331 | 1.0 | 2.0 | 0.00 | 0.00 | 0.00 | 84 | 1011.8 |
| 20260904141604 | 65 | 330 | 1.0 | 2.0 | 0.00 | 0.00 | 0.00 | 84 | 1011.8 |
| 20260904141057 | 65 | 347 | 1.0 | 2.0 | 0.00 | 0.00 | 0.00 | 85 | 1011.8 |
| 20260904140557 | 65 | 359 | 2.0 | 2.0 | 0.00 | 0.00 | 0.00 | 85 | 1011.8 |
| 20260904135536 | 65 | 8 | 2.0 | 2.0 | 0.00 | 0.00 | 0.00 | 85 | 1011.8 |
| 20260904135029 | 65 | 356 | 1.0 | 3.0 | 0.00 | 0.00 | 0.00 | 85 | 1011.8 |
| 20260904134529 | 65 | 343 | 1.0 | 2.0 | 0.00 | 0.00 | 0.00 | 85 | 1011.8 |
| 20260904133957 | 65 | 334 | 0.0 | 1.0 | 0.00 | 0.00 | 0.00 | 85 | 1011.4 |
| 20260904133447 | 65 | 331 | 0.0 | 2.0 | 0.00 | 0.00 | 0.00 | 85 | 1011.4 |
| 20260904132930 | 65 | 341 | 0.0 | 2.0 | 0.00 | 0.00 | 0.00 | 85 | 1011.4 |
| 20260904131838 | 65 | 352 | 1.0 | 2.0 | 0.00 | 0.00 | 0.00 | 85 | 1011.4 |
| 20260904130837 | 65 | 347 | 1.0 | 2.0 | 0.00 | 0.00 | 0.00 | 85 | 1011.4 |
| 20260904130329 | 65 | 10 | 2.0 | 2.0 | 0.00 | 0.00 | 0.00 | 84 | 1011.4 |
| 20260904125829 | 66 | 8 | 1.0 | 2.0 | 0.00 | 0.00 | 0.00 | 84 | 1011.4 |
| 20260904125257 | 66 | 346 | 0.0 | 2.0 | 0.00 | 0.00 | 0.00 | 84 | 1011.4 |
| 20260904124758 | 66 | 340 | 1.0 | 2.0 | 0.00 | 0.00 | 0.00 | 84 | 1011.4 |
| 20260904124237 | 66 | 1 | 1.0 | 2.0 | 0.00 | 0.00 | 0.00 | 85 | 1011.4 |
| 20260904123236 | 65 | 9 | 1.0 | 2.0 | 0.00 | 0.00 | 0.00 | 85 | 1011.4 |
| 20260904122203 | 65 | 346 | 1.0 | 1.0 | 0.00 | 0.00 | 0.00 | 86 | 1011.1 |
| 20260904121703 | 65 | 346 | 0.0 | 1.0 | 0.00 | 0.00 | 0.00 | 85 | 1011.1 |
| 20260904121150 | 65 | 346 | 1.0 | 1.0 | 0.00 | 0.00 | 0.00 | 85 | 1011.1 |
| 20260904120636 | 65 | 346 | 1.0 | 1.0 | 0.00 | 0.00 | 0.00 | 86 | 1011.4 |
| 20260904120129 | 65 | 346 | 1.0 | 1.0 | 0.00 | 0.00 | 0.00 | 86 | 1011.1 |
| 20260904115558 | 65 | 346 | 1.0 | 1.0 | 0.00 | 0.00 | 0.00 | 86 | 1011.1 |
| 20260904114557 | 65 | 345 | 0.0 | 2.0 | 0.00 | 0.00 | 0.00 | 86 | 1011.4 |
| 20260904114048 | 64 | 343 | 0.0 | 2.0 | 0.00 | 0.00 | 0.00 | 86 | 1011.1 |
| 20260904113548 | 64 | 338 | 1.0 | 2.0 | 0.00 | 0.00 | 0.00 | 87 | 1011.4 |
| 20260904113036 | 64 | 337 | 0.0 | 2.0 | 0.00 | 0.00 | 0.00 | 86 | 1011.1 |
| 20260904112504 | 64 | 343 | 1.0 | 2.0 | 0.00 | 0.00 | 0.00 | 87 | 1011.1 |
| 20260904112004 | 64 | 345 | 0.0 | 2.0 | 0.00 | 0.00 | 0.00 | 87 | 1011.1 |
| 20260904111504 | 63 | 353 | 1.0 | 2.0 | 0.00 | 0.00 | 0.00 | 87 | 1011.1 |
| 20260904110956 | 63 | 350 | 1.0 | 2.0 | 0.00 | 0.00 | 0.00 | 86 | 1011.1 |
| 20260904110437 | 64 | 346 | 1.0 | 2.0 | 0.00 | 0.00 | 0.00 | 86 | 1011.4 |
| 20260904105929 | 64 | 347 | 1.0 | 2.0 | 0.00 | 0.00 | 0.00 | 86 | 1011.4 |
| 20260904105429 | 63 | 346 | 1.0 | 2.0 | 0.00 | 0.00 | 0.00 | 86 | 1011.4 |
| 20260904104909 | 63 | 349 | 0.0 | 2.0 | 0.00 | 0.00 | 0.00 | 86 | 1011.4 |
| 20260904104402 | 63 | 347 | 1.0 | 2.0 | 0.00 | 0.00 | 0.00 | 86 | 1011.4 |
| 20260904103902 | 63 | 348 | 0.0 | 2.0 | 0.00 | 0.00 | 0.00 | 86 | 1011.1 |
| 20260904102847 | 63 | 347 | 1.0 | 1.0 | 0.00 | 0.00 | 0.00 | 86 | 1011.1 |
| 20260904102348 | 63 | 347 | 1.0 | 1.0 | 0.00 | 0.00 | 0.00 | 86 | 1011.1 |
| 20260904101836 | 63 | 347 | 0.0 | 2.0 | 0.00 | 0.00 | 0.00 | 86 | 1011.1 |
| 20260904101329 | 63 | 6 | 1.0 | 2.0 | 0.00 | 0.00 | 0.00 | 86 | 1011.1 |
| 20260904100758 | 63 | 324 | 1.0 | 2.0 | 0.00 | 0.00 | 0.00 | 86 | 1011.1 |
| 20260904100250 | 63 | 335 | 0.0 | 2.0 | 0.00 | 0.00 | 0.00 | 86 | 1011.1 |
| 20260904095736 | 63 | 330 | 1.0 | 1.0 | 0.00 | 0.00 | 0.00 | 86 | 1011.1 |
| 20260904095203 | 63 | 331 | 1.0 | 1.0 | 0.00 | 0.00 | 0.00 | 86 | 1011.1 |
| 20260904094703 | 63 | 334 | 1.0 | 1.0 | 0.00 | 0.00 | 0.00 | 86 | 1011.1 |
| 20260904094204 | 63 | 326 | 0.0 | 0.0 | 0.00 | 0.00 | 0.00 | 86 | 1011.1 |
| 20260904093704 | 63 | 326 | 0.0 | 1.0 | 0.00 | 0.00 | 0.00 | 86 | 1011.1 |
| 20260904093158 | 63 | 326 | 0.0 | 1.0 | 0.00 | 0.00 | 0.00 | 86 | 1011.1 |
| 20260904092657 | 63 | 326 | 1.0 | 2.0 | 0.00 | 0.00 | 0.00 | 86 | 1011.1 |
| 20260904091647 | 63 | 335 | 0.0 | 2.0 | 0.00 | 0.00 | 0.00 | 85 | 1011.1 |
| 20260904090604 | 63 | 335 | 0.0 | 1.0 | 0.00 | 0.00 | 0.00 | 85 | 1011.1 |
| 20260904090104 | 64 | 335 | 1.0 | 1.0 | 0.00 | 0.00 | 0.00 | 85 | 1011.1 |
| 20260904085550 | 64 | 335 | 1.0 | 1.0 | 0.00 | 0.00 | 0.00 | 85 | 1011.1 |
| 20260904085049 | 64 | 333 | 0.0 | 1.0 | 0.00 | 0.00 | 0.00 | 85 | 1011.1 |
| 20260904084035 | 64 | 334 | 0.0 | 1.0 | 0.00 | 0.00 | 0.00 | 85 | 1011.4 |
| 20260904083503 | 64 | 333 | 0.0 | 1.0 | 0.00 | 0.00 | 0.00 | 85 | 1011.1 |
| 20260904081950 | 64 | 332 | 1.0 | 1.0 | 0.00 | 0.00 | 0.00 | 84 | 1011.1 |
| 20260904081435 | 64 | 328 | 0.0 | 2.0 | 0.00 | 0.00 | 0.00 | 84 | 1011.1 |
| 20260904080411 | 64 | 326 | 1.0 | 2.0 | 0.00 | 0.00 | 0.00 | 83 | 1011.1 |
| 20260904075904 | 64 | 317 | 0.0 | 2.0 | 0.00 | 0.00 | 0.00 | 83 | 1011.4 |
| 20260904075404 | 64 | 339 | 1.0 | 2.0 | 0.00 | 0.00 | 0.00 | 83 | 1011.4 |
| 20260904074903 | 64 | 8 | 1.0 | 2.0 | 0.00 | 0.00 | 0.00 | 83 | 1011.4 |
| 20260904074358 | 64 | 323 | 1.0 | 1.0 | 0.00 | 0.00 | 0.00 | 83 | 1011.4 |
| 20260904073835 | 64 | 325 | 0.0 | 1.0 | 0.00 | 0.00 | 0.00 | 83 | 1011.4 |
| 20260904073329 | 64 | 326 | 0.0 | 1.0 | 0.00 | 0.00 | 0.00 | 83 | 1011.4 |
| 20260904072828 | 64 | 322 | 1.0 | 2.0 | 0.00 | 0.00 | 0.00 | 83 | 1011.4 |
| 20260904071829 | 64 | 328 | 1.0 | 2.0 | 0.00 | 0.00 | 0.00 | 83 | 1011.4 |
| 20260904071304 | 65 | 327 | 1.0 | 2.0 | 0.00 | 0.00 | 0.00 | 83 | 1011.1 |
| 20260904070758 | 65 | 326 | 1.0 | 2.0 | 0.00 | 0.00 | 0.00 | 83 | 1011.1 |
| 20260904070256 | 65 | 327 | 1.0 | 2.0 | 0.00 | 0.00 | 0.00 | 83 | 1011.1 |
| 20260904065749 | 65 | 330 | 1.0 | 2.0 | 0.00 | 0.00 | 0.00 | 83 | 1011.1 |
| 20260904065241 | 65 | 332 | 1.0 | 2.0 | 0.00 | 0.00 | 0.00 | 82 | 1011.1 |
| 20260904064736 | 65 | 333 | 0.0 | 1.0 | 0.00 | 0.00 | 0.00 | 82 | 1011.1 |
| 20260904064229 | 66 | 333 | 1.0 | 2.0 | 0.00 | 0.00 | 0.00 | 82 | 1011.4 |
| 20260904063704 | 66 | 333 | 2.0 | 2.0 | 0.00 | 0.00 | 0.00 | 82 | 1011.1 |
| 20260904062636 | 66 | 326 | 0.0 | 3.0 | 0.00 | 0.00 | 0.00 | 82 | 1011.1 |
| 20260904062129 | 66 | 350 | 2.0 | 3.0 | 0.00 | 0.00 | 0.00 | 82 | 1011.1 |
| 20260904061604 | 66 | 6 | 2.0 | 2.0 | 0.00 | 0.00 | 0.00 | 82 | 1011.1 |
| 20260904061057 | 66 | 23 | 2.0 | 2.0 | 0.00 | 0.00 | 0.00 | 82 | 1011.1 |
| 20260904060536 | 66 | 334 | 0.0 | 2.0 | 0.00 | 0.00 | 0.00 | 82 | 1011.1 |
| 20260904060027 | 66 | 324 | 1.0 | 4.0 | 0.00 | 0.00 | 0.00 | 82 | 1011.1 |
| 20260904054957 | 66 | 9 | 2.0 | 3.0 | 0.00 | 0.00 | 0.00 | 82 | 1011.1 |
| 20260904054457 | 66 | 7 | 2.0 | 3.0 | 0.00 | 0.00 | 0.00 | 83 | 1011.1 |
| 20260904053957 | 66 | 346 | 1.0 | 3.0 | 0.00 | 0.00 | 0.00 | 83 | 1011.1 |
| 20260904053457 | 66 | 331 | 1.0 | 2.0 | 0.00 | 0.00 | 0.00 | 83 | 1010.7 |
| 20260904052936 | 66 | 334 | 1.0 | 1.0 | 0.00 | 0.00 | 0.00 | 83 | 1011.1 |
| 20260904052426 | 66 | 328 | 0.0 | 1.0 | 0.00 | 0.00 | 0.00 | 83 | 1011.1 |
| 20260904051905 | 66 | 328 | 1.0 | 1.0 | 0.00 | 0.00 | 0.00 | 83 | 1011.1 |
| 20260904051357 | 66 | 328 | 0.0 | 2.0 | 0.00 | 0.00 | 0.00 | 83 | 1011.1 |
| 20260904050836 | 66 | 343 | 1.0 | 2.0 | 0.00 | 0.00 | 0.00 | 83 | 1011.1 |
| 20260904050329 | 66 | 320 | 1.0 | 1.0 | 0.00 | 0.00 | 0.00 | 83 | 1011.1 |
| 20260904045804 | 66 | 316 | 1.0 | 2.0 | 0.00 | 0.00 | 0.00 | 82 | 1011.1 |
| 20260904045306 | 66 | 318 | 0.0 | 2.0 | 0.00 | 0.00 | 0.00 | 83 | 1011.1 |
| 20260904044804 | 66 | 321 | 1.0 | 2.0 | 0.00 | 0.00 | 0.00 | 82 | 1011.1 |
| 20260904044304 | 66 | 322 | 1.0 | 1.0 | 0.00 | 0.00 | 0.00 | 82 | 1011.1 |
| 20260904043741 | 66 | 323 | 1.0 | 2.0 | 0.00 | 0.00 | 0.00 | 83 | 1011.1 |
| 20260904043236 | 67 | 324 | 0.0 | 2.0 | 0.00 | 0.00 | 0.00 | 82 | 1011.1 |
| 20260904042737 | 67 | 323 | 1.0 | 2.0 | 0.00 | 0.00 | 0.00 | 83 | 1011.1 |
| 20260904041704 | 67 | 319 | 1.0 | 2.0 | 0.00 | 0.00 | 0.00 | 83 | 1011.1 |
| 20260904041204 | 67 | 282 | 1.0 | 2.0 | 0.00 | 0.00 | 0.00 | 82 | 1010.7 |
| 20260904040702 | 67 | 240 | 1.0 | 2.0 | 0.00 | 0.00 | 0.00 | 82 | 1010.7 |
| 20260904040157 | 67 | 242 | 1.0 | 2.0 | 0.00 | 0.00 | 0.00 | 82 | 1010.7 |
| 20260904035636 | 67 | 233 | 2.0 | 2.0 | 0.00 | 0.00 | 0.00 | 82 | 1010.7 |
| 20260904035129 | 67 | 267 | 0.0 | 2.0 | 0.00 | 0.00 | 0.00 | 82 | 1010.7 |
| 20260904034604 | 67 | 249 | 2.0 | 2.0 | 0.00 | 0.00 | 0.00 | 82 | 1010.7 |
| 20260904032504 | 67 | 210 | 2.0 | 2.0 | 0.00 | 0.00 | 0.00 | 82 | 1010.4 |
| 20260904031957 | 67 | 240 | 2.0 | 3.0 | 0.00 | 0.00 | 0.00 | 82 | 1010.4 |
| 20260904031436 | 68 | 254 | 1.0 | 3.0 | 0.00 | 0.00 | 0.00 | 82 | 1010.7 |
| 20260904030930 | 68 | 249 | 1.0 | 3.0 | 0.00 | 0.00 | 0.00 | 82 | 1010.4 |
| 20260904030404 | 68 | 229 | 1.0 | 3.0 | 0.00 | 0.00 | 0.00 | 81 | 1010.4 |
| 20260904025901 | 68 | 225 | 2.0 | 4.0 | 0.00 | 0.00 | 0.00 | 81 | 1010.4 |
| 20260904025357 | 68 | 281 | 1.0 | 4.0 | 0.00 | 0.00 | 0.00 | 81 | 1010.4 |
| 20260904024829 | 68 | 267 | 1.0 | 3.0 | 0.00 | 0.00 | 0.00 | 81 | 1010.4 |
| 20260904023757 | 68 | 228 | 5.0 | 6.0 | 0.00 | 0.00 | 0.00 | 80 | 1010.4 |
| 20260904023236 | 68 | 280 | 2.0 | 7.0 | 0.00 | 0.00 | 0.00 | 80 | 1010.4 |
| 20260904022729 | 68 | 264 | 4.0 | 7.0 | 0.00 | 0.00 | 0.00 | 80 | 1010.4 |
| 20260904021138 | 68 | 279 | 3.0 | 10.0 | 0.00 | 0.00 | 0.00 | 80 | 1010.4 |
| 20260904020106 | 69 | 264 | 6.0 | 9.0 | 0.00 | 0.00 | 0.00 | 79 | 1010.4 |
| 20260904015557 | 69 | 230 | 7.0 | 9.0 | 0.00 | 0.00 | 0.00 | 78 | 1010.4 |
| 20260904015038 | 70 | 250 | 3.0 | 8.0 | 0.00 | 0.00 | 0.00 | 79 | 1010.4 |
| 20260904013537 | 71 | 301 | 9.0 | 10.0 | 0.00 | 0.00 | 0.00 | 77 | 1010.4 |
| 20260904013027 | 71 | 192 | 3.0 | 10.0 | 0.00 | 0.00 | 0.00 | 78 | 1010.4 |
| 20260904012505 | 71 | 236 | 6.0 | 9.0 | 0.00 | 0.00 | 0.00 | 77 | 1010.4 |
| 20260904011949 | 71 | 266 | 5.0 | 11.0 | 0.00 | 0.00 | 0.00 | 77 | 1010.4 |
| 20260904010950 | 71 | 250 | 9.0 | 11.0 | 0.00 | 0.00 | 0.00 | 75 | 1010.4 |
| 20260904010441 | 71 | 238 | 8.0 | 11.0 | 0.00 | 0.00 | 0.00 | 74 | 1010.4 |
| 20260904005936 | 72 | 215 | 5.0 | 13.0 | 0.00 | 0.00 | 0.00 | 72 | 1010.4 |
| 20260904005432 | 72 | 168 | 9.0 | 13.0 | 0.00 | 0.00 | 0.00 | 72 | 1010.4 |
| 20260904004914 | 72 | 247 | 6.0 | 10.0 | 0.00 | 0.00 | 0.00 | 72 | 1010.7 |
| 20260904004408 | 73 | 240 | 7.0 | 10.0 | 0.00 | 0.00 | 0.00 | 72 | 1010.7 |
| 20260904003902 | 73 | 219 | 5.0 | 13.0 | 0.00 | 0.00 | 0.00 | 72 | 1010.4 |
| 20260904002848 | 72 | 249 | 7.0 | 13.0 | 0.00 | 0.00 | 0.00 | 73 | 1010.4 |
| 20260904002342 | 73 | 228 | 9.0 | 14.0 | 0.00 | 0.00 | 0.00 | 72 | 1010.7 |
| 20260904001837 | 72 | 219 | 5.0 | 14.0 | 0.00 | 0.00 | 0.00 | 73 | 1010.7 |
| 20260904000822 | 73 | 270 | 5.0 | 14.0 | 0.00 | 0.00 | 0.00 | 72 | 1010.7 |
| 20260904000318 | 72 | 245 | 6.0 | 14.0 | 0.00 | 0.00 | 0.00 | 72 | 1010.7 |
| 20260903235809 | 73 | 250 | 10.0 | 14.0 | 0.00 | 0.00 | 0.00 | 72 | 1010.7 |
| 20260903234756 | 73 | 217 | 9.0 | 16.0 | 0.00 | 0.00 | 0.00 | 71 | 1010.7 |
| 20260903234250 | 73 | 228 | 4.0 | 16.0 | 0.00 | 0.00 | 0.00 | 72 | 1010.7 |
| 20260903233743 | 73 | 225 | 6.0 | 11.0 | 0.00 | 0.00 | 0.00 | 70 | 1010.7 |
| 20260903233237 | 74 | 253 | 6.0 | 11.0 | 0.00 | 0.00 | 0.00 | 70 | 1010.7 |
| 20260903232730 | 74 | 213 | 6.0 | 13.0 | 0.00 | 0.00 | 0.00 | 70 | 1011.1 |
| 20260903232223 | 73 | 254 | 4.0 | 15.0 | 0.00 | 0.00 | 0.00 | 71 | 1011.1 |
| 20260903231211 | 73 | 200 | 8.0 | 14.0 | 0.00 | 0.00 | 0.00 | 70 | 1011.1 |
| 20260903230704 | 73 | 277 | 8.0 | 14.0 | 0.00 | 0.00 | 0.00 | 72 | 1011.1 |
| 20260903230157 | 73 | 231 | 9.0 | 14.0 | 0.00 | 0.00 | 0.00 | 72 | 1011.1 |
| 20260903225651 | 74 | 241 | 10.0 | 14.0 | 0.00 | 0.00 | 0.00 | 71 | 1011.1 |
| 20260903225144 | 74 | 238 | 11.0 | 17.0 | 0.00 | 0.00 | 0.00 | 70 | 1011.1 |
| 20260903224639 | 73 | 225 | 6.0 | 17.0 | 0.00 | 0.00 | 0.00 | 72 | 1011.4 |
| 20260903224131 | 73 | 205 | 10.0 | 15.0 | 0.00 | 0.00 | 0.00 | 71 | 1011.1 |